Вернуться в каталог

METOP-C

АктивенПогодаSSO
NORAD 43689·PAYLOAD·🇪🇺 EU

Запущен Nov 7, 2018 с Guiana Space Centre

Loading…

Ближайшие Пролёты (ближайшие 24 часа)

TLE

СвежийSource: Space-Track

Эпоха: Sep 14, 2026, 21:10 UTC

1 43689U 18087A   26257.88244651  .00000063  00000-0  48542-4 0  9990
2 43689  98.6953 315.8515 0000443  59.2242 300.8979 14.21510465407573

Отслеживайте METOP-C в реальном времени с AllMySat

Download on the App Store